Missoula, MT

10:16 PM MDT on September 23, 2017 (GMT -0600)
Missoula International

Weather History for KMSO - February, 2013

Change the Weather History Date:

Wednesday, February 27, 2013

  Actual Average Record
Temperature  
Mean Temperature 33 °F 33 °F  
Max Temperature 42 °F 43 °F 64 °F (1932)
Min Temperature 23 °F 23 °F -8 °F (1993)
Degree Days  
Heating Degree Days 32 32  
Month to date heating degree days 855 948  
Since 1 July heating degree days 4962 5337  
Cooling Degree Days 0 0  
Month to date cooling degree days 0 0  
Year to date cooling degree days 0 0  
Moisture  
Dew Point 20 °F    
Average Humidity 62    
Maximum Humidity 81    
Minimum Humidity 43    
Precipitation  
Precipitation 0.00 in 0.02 in 0.47 in (1972)
Month to date precipitation 0.30 0.67  
Year to date precipitation 1.45 1.52  
Snow  
Snow 0.00 in - - ()
Month to date snowfall 3.4  
Year to date snowfall 14.8  
Since 1 July snowfall 35.9  
Snow Depth 0.00 in    
Sea Level Pressure  
Sea Level Pressure 30.35 in    
Wind  
Wind Speed 3 mph (North)    
Max Wind Speed 17 mph    
Max Gust Speed 22 mph    
Visibility 10 miles    
Events      
T = Trace of Precipitation, MM = Missing Value Source: NWS Daily Summary

Daily Weather History Graph

Daily Weather History Graph

Search for Another Location

Airport or City:

Trip Planner

Search our weather history database for the weather conditions in past years. The results will help you decide how hot, cold, wet, or windy it might be!

Date:

Astronomy

Feb. 27, 2013 Rise Set
Actual Time 7:19 AM MST 6:19 PM MST
Civil Twilight 6:48 AM MST 6:50 PM MST
Nautical Twilight 6:13 AM MST 7:25 PM MST
Astronomical Twilight 5:38 AM MST 8:00 PM MST
Moon 8:58 PM MST (2/27) 7:46 AM MST (2/27)
Length of Visible Light 12h 01m
Length of Day
11h 00m
Waning Gibbous, 96% of the Moon is Illuminated
Feb 27
Waning Gibbous
Mar 4
Last Quarter
Mar 11
New
Mar 19
First Quarter
Mar 27
Full

Hourly Weather History & Observations

Time (MST) Temp. Windchill Dew Point Humidity Pressure Visibility Wind Dir Wind Speed Gust Speed Precip Events Conditions
12:53 AM 26.1 °F - 19.9 °F 78% 30.36 in 10.0 mi Calm Calm - N/A   Clear
1:53 AM 25.0 °F - 19.0 °F 78% 30.36 in 10.0 mi Calm Calm - N/A   Overcast
2:53 AM 25.0 °F 19.3 °F 19.9 °F 81% 30.36 in 10.0 mi SE 4.6 mph - N/A   Overcast
3:53 AM 24.1 °F 18.2 °F 19.0 °F 81% 30.36 in 10.0 mi East 4.6 mph - N/A   Scattered Clouds
4:53 AM 25.0 °F - 19.0 °F 78% 30.36 in 10.0 mi Calm Calm - N/A   Partly Cloudy
5:53 AM 24.1 °F - 19.9 °F 84% 30.37 in 10.0 mi Calm Calm - N/A   Mostly Cloudy
6:53 AM 25.0 °F 18.1 °F 18.0 °F 75% 30.36 in 10.0 mi East 5.8 mph - N/A   Mostly Cloudy
7:53 AM 26.1 °F 19.4 °F 18.0 °F 71% 30.37 in 10.0 mi ESE 5.8 mph - N/A   Overcast
8:53 AM 26.1 °F - 21.0 °F 81% 30.39 in 10.0 mi Calm Calm - N/A   Overcast
9:53 AM 27.0 °F - 19.9 °F 75% 30.38 in 10.0 mi Calm Calm - N/A   Overcast
10:53 AM 30.0 °F - 19.9 °F 66% 30.38 in 10.0 mi Calm Calm - N/A   Overcast
11:53 AM 33.1 °F - 18.0 °F 54% 30.37 in 10.0 mi Calm Calm - N/A   Overcast
12:53 PM 35.1 °F - 19.9 °F 54% 30.36 in 10.0 mi Calm Calm - N/A   Overcast
1:53 PM 36.0 °F 31.1 °F 21.9 °F 57% 30.33 in 10.0 mi WSW 5.8 mph - N/A   Overcast
2:53 PM 37.9 °F 34.4 °F 21.0 °F 51% 30.32 in 10.0 mi West 4.6 mph - N/A   Overcast
3:53 PM 42.1 °F 36.1 °F 21.9 °F 45% 30.30 in 10.0 mi North 10.4 mph - N/A   Overcast
4:53 PM 41.0 °F 33.1 °F 21.0 °F 45% 30.32 in 10.0 mi North 15.0 mph - N/A   Mostly Cloudy
5:53 PM 39.0 °F 33.4 °F 21.0 °F 49% 30.32 in 10.0 mi NNW 8.1 mph - N/A   Scattered Clouds
6:53 PM 36.0 °F 32.1 °F 21.0 °F 55% 30.32 in 10.0 mi NW 4.6 mph - N/A   Mostly Cloudy
7:53 PM 33.1 °F - 21.0 °F 61% 30.34 in 10.0 mi Calm Calm - N/A   Clear
8:53 PM 28.9 °F 23.9 °F 21.0 °F 72% 30.35 in 10.0 mi North 4.6 mph - N/A   Clear
9:53 PM 28.0 °F 24.2 °F 21.0 °F 75% 30.35 in 10.0 mi NW 3.5 mph - N/A   Clear
10:53 PM 28.4 °F - 21.2 °F 74% 30.24 in 10.0 mi Calm Calm - N/A   Clear
11:53 PM 28.0 °F - 21.0 °F 75% 30.33 in 10.0 mi Calm Calm - N/A   Clear